Wind_Speed
29 30 33 35 36 37 37 35 35 34 33 34 35 36 36 36 35 34 34 33 32 31 29 28 27 29 34 39 41 42 42 43 42 40 38 38 38 39
27 28 29 32 33 34 35 35 35 34 34 34 36 36 36 36 34 33 31 29 27 26 25 24 23 24 29 37 42 44 43 42 42 40 40 40 40 39
27 26 27 27 29 31 33 34 35 35 36 36 38 38 37 35 33 32 31 28 27 26 24 23 23 23 25 30 37 41 42 41 41 40 40 42 44 44
26 25 24 25 26 28 30 32 33 34 35 37 39 38 36 33 32 31 30 29 28 26 25 23 23 23 24 26 31 39 41 42 42 42 42 44 44 43
26 24 21 20 21 23 25 27 29 31 33 36 37 36 33 29 28 28 27 27 26 25 24 23 22 22 23 23 24 28 34 39 41 40 40 41 42 42
25 22 19 16 16 17 18 20 24 28 31 34 34 34 31 28 26 26 26 25 23 22 20 19 18 17 17 18 19 21 23 26 30 33 36 38 41 42
24 21 17 13 12 13 14 15 19 23 27 30 32 31 28 27 26 24 22 21 18 16 16 16 16 17 18 20 21 22 24 26 28 30 32 35 37 40
24 21 18 14 12 12 13 14 16 17 20 24 27 27 26 25 23 21 19 18 16 15 15 15 16 18 19 21 22 23 25 26 28 30 33 35 37 40
25 22 19 15 14 13 14 16 19 21 23 24 25 25 24 22 20 19 18 17 15 15 15 15 16 17 18 19 21 22 24 26 28 31 33 35 37 40
26 23 19 16 14 15 16 18 20 24 27 26 24 22 20 19 19 18 17 15 14 13 14 14 14 15 16 18 20 21 23 25 27 30 32 35 38 41
28 24 21 17 14 15 17 18 20 22 25 25 23 21 20 19 18 17 15 13 13 13 13 13 13 13 14 16 18 20 22 24 27 30 33 36 39 43
30 26 23 19 16 16 17 18 20 22 23 23 22 21 20 19 16 14 13 12 11 10 10 10 10 11 12 15 16 18 20 23 26 29 33 37 40 44
31 28 24 21 19 19 20 20 21 22 23 22 21 20 18 16 14 13 12 10 8 9 9 9 9 10 11 13 14 17 20 23 26 29 32 35 39 42
31 29 25 23 23 22 23 24 24 24 23 22 20 19 17 15 15 14 11 9 8 8 9 9 9 10 12 13 14 17 20 23 26 28 31 33 34 37
30 28 25 24 24 24 26 26 25 23 22 21 19 17 16 16 15 14 11 10 10 11 11 11 11 11 12 13 15 18 21 23 26 29 30 31 32 33
29 27 25 24 24 25 25 24 22 19 19 19 18 17 16 14 14 13 13 13 13 13 13 13 12 12 12 13 15 18 20 23 26 28 30 31 31 32
28 26 24 24 24 23 23 20 18 19 19 18 17 15 13 12 13 14 14 14 15 15 15 14 14 13 13 13 15 18 21 23 24 26 27 28 29 29
27 26 25 25 24 23 21 19 20 19 18 16 15 14 13 13 13 15 16 17 17 17 16 16 16 17 18 18 19 21 22 23 24 25 26 27 28 29
27 27 27 27 26 25 22 21 20 18 16 16 16 16 15 15 15 16 18 19 20 19 18 17 18 19 21 21 22 22 22 23 25 25 26 28 30 31
28 29 28 28 28 26 24 23 20 18 17 17 17 17 17 16 17 19 21 22 23 22 21 21 21 23 25 25 23 21 21 21 22 24 26 28 31 34
31 30 28 27 27 26 25 22 20 18 17 18 18 17 17 17 19 21 23 24 25 26 26 27 27 28 28 26 22 20 19 19 21 23 26 28 31 34
34 32 28 26 26 25 23 21 19 18 18 18 18 18 18 18 20 21 24 25 26 26 27 27 27 26 25 23 21 20 20 21 22 24 26 29 32 35
33 31 28 26 25 24 22 21 20 19 19 19 19 19 19 19 20 21 22 22 23 24 25 25 24 23 23 22 21 21 22 24 25 27 29 31 35 39
Wind_Direction
289 276 267 261 260 258 257 257 258 260 263 263 261 260 258 254 252 253 255 257 256 255 257 260 262 258 250 237 226 222 224 228 230 233 238 244 248 250
297 285 274 265 260 258 257 256 257 258 259 260 259 258 255 250 248 248 247 247 246 247 254 259 259 258 254 244 231 224 224 226 229 234 238 241 245 249
303 291 278 268 260 257 258 258 257 256 256 255 254 252 249 246 243 241 240 242 245 252 256 258 257 255 253 250 240 231 229 231 234 240 244 247 250 253
307 298 285 272 263 259 259 259 258 256 251 247 247 246 244 242 238 235 237 243 248 252 255 256 255 253 249 248 245 240 237 237 240 243 246 248 250 253
309 305 294 278 265 260 259 256 252 247 241 239 240 238 235 229 227 228 235 242 249 254 255 254 254 255 254 253 251 248 245 244 244 247 250 251 252 253
306 306 300 286 270 262 259 254 247 242 237 234 230 228 222 219 223 231 239 246 249 250 250 249 248 249 251 254 254 255 256 255 255 256 257 259 259 259
300 302 300 290 278 272 262 253 242 235 230 225 219 217 212 216 224 230 234 237 238 241 243 244 247 249 252 253 254 256 258 258 258 258 258 259 260 260
290 294 296 291 279 271 261 249 239 229 217 212 210 209 208 212 217 221 225 227 232 237 241 245 248 251 253 255 257 258 259 260 261 261 261 260 260 259
280 284 285 283 272 262 255 246 241 235 227 221 216 210 205 205 208 215 221 225 229 237 242 246 250 256 261 266 270 272 272 272 272 272 271 270 268 267
268 271 274 270 264 258 253 248 244 236 229 222 214 204 203 207 210 214 217 220 225 233 242 250 256 264 272 277 281 282 283 282 281 280 279 277 275 274
257 260 263 258 255 252 248 243 238 232 225 217 208 203 205 206 209 211 213 217 224 235 245 256 266 276 283 288 291 292 292 292 291 290 287 285 282 280
249 250 253 250 242 237 234 231 230 226 220 213 206 201 200 202 205 210 216 224 231 242 254 266 278 288 294 297 298 299 299 298 296 294 291 288 284 281
243 244 245 244 236 228 224 226 227 224 216 207 200 197 197 200 205 213 218 222 237 256 267 273 280 288 292 298 303 307 309 309 307 304 301 298 294 288
238 238 239 238 233 226 221 225 226 218 206 198 195 195 198 203 206 205 207 220 241 255 261 268 281 291 297 302 307 312 316 317 317 316 315 314 310 303
233 232 232 233 228 222 218 220 216 204 196 191 192 197 203 206 205 204 210 227 241 250 260 273 282 291 299 305 311 317 323 326 328 329 329 329 326 322
226 225 225 225 220 215 212 203 192 187 188 189 194 200 205 208 210 214 224 233 242 252 267 277 280 287 299 309 316 322 327 331 333 333 334 334 333 328
216 217 217 216 210 201 191 181 181 184 188 191 196 202 208 214 220 227 233 239 248 258 268 275 275 277 287 301 312 319 324 328 330 333 335 337 337 336
208 208 205 204 197 188 182 182 184 187 191 196 201 207 214 223 231 237 240 245 253 260 266 269 272 276 283 292 303 313 318 322 324 327 329 332 334 335
203 198 197 197 193 188 186 188 189 193 199 204 207 213 221 231 239 242 245 249 255 260 263 267 273 280 288 296 303 310 317 321 322 322 324 327 328 329
195 191 191 190 189 189 191 192 194 199 204 208 213 219 227 237 245 248 251 253 256 261 267 274 283 290 296 299 303 309 316 320 321 322 324 325 327 328
188 186 185 186 188 189 191 193 197 203 209 215 221 227 234 244 250 254 256 258 261 267 274 281 288 292 293 294 297 302 308 313 316 320 322 323 324 326
185 184 183 184 186 187 190 195 202 209 217 223 228 234 241 248 254 258 260 263 268 274 281 286 289 290 289 289 291 295 301 305 307 311 316 318 320 323
185 184 182 181 184 189 195 202 209 216 223 229 234 240 246 253 260 264 266 269 274 280 286 288 287 286 286 287 289 292 298 303 305 308 312 316 320 323
Height
5736 5734 5733 5734 5736 5739 5741 5744 5746 5747 5749 5749 5750 5751 5752 5753 5755 5756 5758 5759 5761 5762 5763 5764 5765 5766 5767 5768 5770 5774 5779 5784 5789 5793 5796 5799 5801 5803
5729 5726 5724 5724 5725 5728 5731 5734 5736 5738 5740 5741 5742 5743 5743 5745 5747 5748 5751 5753 5754 5755 5756 5757 5758 5759 5760 5762 5764 5766 5770 5775 5780 5784 5787 5790 5792 5793
5722 5719 5716 5715 5716 5718 5721 5723 5726 5728 5730 5732 5732 5733 5734 5736 5739 5741 5744 5746 5747 5749 5750 5751 5752 5752 5754 5756 5758 5760 5763 5767 5771 5775 5778 5781 5783 5785
5715 5712 5709 5707 5707 5708 5711 5714 5716 5718 5720 5721 5722 5724 5726 5729 5731 5735 5738 5740 5741 5742 5744 5745 5746 5747 5748 5749 5752 5755 5757 5760 5764 5767 5770 5773 5775 5776
5709 5705 5702 5700 5700 5701 5703 5705 5706 5708 5709 5712 5714 5717 5719 5722 5725 5728 5731 5734 5735 5736 5738 5739 5740 5741 5743 5745 5747 5748 5751 5753 5756 5759 5761 5763 5765 5767
5703 5700 5697 5695 5695 5695 5697 5697 5698 5698 5700 5703 5706 5709 5712 5716 5719 5722 5725 5727 5729 5731 5732 5734 5735 5737 5739 5741 5742 5744 5745 5747 5749 5751 5753 5754 5756 5757
5698 5695 5692 5691 5690 5691 5692 5692 5693 5693 5693 5695 5699 5702 5706 5710 5713 5717 5719 5722 5724 5726 5728 5729 5731 5733 5734 5736 5737 5738 5740 5741 5742 5744 5745 5746 5747 5748
5693 5690 5688 5686 5686 5687 5688 5689 5690 5691 5691 5693 5695 5698 5700 5704 5708 5712 5715 5718 5720 5722 5724 5725 5726 5727 5729 5730 5731 5732 5733 5734 5735 5735 5736 5736 5737 5738
5686 5684 5683 5682 5681 5682 5684 5685 5687 5688 5689 5691 5692 5694 5697 5701 5704 5708 5711 5714 5716 5718 5720 5720 5720 5721 5722 5722 5723 5724 5725 5726 5726 5726 5727 5727 5727 5727
5680 5678 5677 5676 5676 5677 5679 5681 5683 5684 5685 5686 5688 5691 5695 5699 5702 5705 5708 5710 5712 5714 5715 5716 5715 5716 5716 5717 5717 5717 5717 5717 5717 5717 5716 5716 5715 5715
5671 5671 5671 5671 5671 5672 5674 5676 5678 5680 5681 5683 5685 5689 5693 5697 5700 5703 5705 5707 5708 5710 5711 5711 5710 5710 5711 5711 5711 5710 5710 5710 5709 5708 5707 5705 5704 5702
5662 5663 5664 5666 5667 5667 5669 5672 5674 5676 5678 5680 5683 5686 5690 5693 5696 5699 5701 5703 5704 5705 5706 5706 5706 5706 5706 5706 5705 5705 5704 5703 5702 5700 5698 5695 5693 5690
5651 5654 5656 5659 5661 5662 5665 5667 5670 5672 5675 5677 5680 5684 5687 5690 5693 5695 5697 5699 5701 5701 5702 5702 5702 5702 5702 5702 5701 5700 5698 5696 5694 5691 5688 5684 5680 5676
5642 5646 5649 5652 5655 5657 5659 5662 5665 5667 5671 5674 5678 5682 5685 5688 5690 5692 5694 5696 5697 5698 5698 5698 5698 5698 5698 5697 5696 5695 5692 5689 5686 5682 5678 5673 5667 5662
5634 5638 5641 5645 5648 5650 5653 5656 5660 5663 5667 5671 5676 5680 5683 5685 5687 5689 5691 5692 5694 5695 5695 5695 5695 5694 5693 5692 5691 5688 5685 5682 5678 5673 5668 5662 5656 5651
5625 5629 5634 5639 5642 5644 5647 5651 5656 5660 5665 5669 5673 5677 5680 5682 5684 5686 5688 5690 5691 5691 5691 5691 5690 5690 5689 5687 5685 5683 5679 5676 5671 5666 5661 5655 5650 5645
5617 5622 5628 5633 5636 5640 5644 5648 5654 5659 5663 5667 5671 5674 5676 5679 5681 5683 5684 5685 5686 5686 5686 5686 5686 5685 5684 5683 5680 5677 5674 5670 5666 5661 5656 5651 5646 5641
5611 5616 5622 5628 5633 5637 5641 5647 5652 5657 5661 5664 5667 5670 5673 5675 5677 5679 5680 5681 5681 5682 5682 5682 5682 5681 5679 5677 5675 5672 5668 5664 5660 5656 5651 5646 5641 5636
5606 5612 5619 5625 5630 5635 5640 5645 5650 5654 5658 5661 5664 5667 5669 5671 5673 5674 5675 5677 5677 5678 5678 5677 5677 5675 5674 5671 5668 5665 5661 5657 5653 5649 5645 5640 5635 5630
5602 5609 5616 5622 5628 5633 5638 5643 5648 5651 5655 5658 5660 5663 5665 5667 5669 5671 5672 5673 5673 5673 5673 5672 5671 5669 5667 5664 5661 5658 5654 5650 5647 5643 5639 5634 5629 5623
5600 5607 5614 5620 5625 5631 5636 5641 5645 5649 5652 5655 5657 5659 5662 5664 5666 5667 5667 5668 5668 5667 5667 5666 5664 5661 5658 5656 5654 5651 5648 5645 5641 5638 5634 5629 5624 5618
5598 5606 5612 5618 5623 5629 5634 5638 5642 5646 5649 5652 5654 5656 5659 5660 5661 5662 5662 5662 5662 5661 5660 5658 5655 5653 5651 5648 5646 5643 5641 5638 5635 5632 5628 5623 5618 5612
5599 5605 5611 5616 5622 5627 5631 5636 5639 5643 5646 5648 5651 5653 5655 5656 5656 5656 5656 5656 5655 5653 5652 5649 5647 5645 5643 5641 5639 5636 5633 5631 5627 5624 5620 5616 5611 5604